Regional Weather Roundup
Issued by NWS Newport/Morehead, NC

Current Version | Previous Version | Text Only | Print | Product List | Glossary Off
Versions: 1 2 3 4 5 6 7 8 9 10 11 12 13 14 15 16 17 18 19 20 21 22 23 24 25 26 27 28 29 30 31 32 33 34 35 36 37 38 39 40 41 42 43 44 45 46 47 48 49 50

000
ASUS42 KMHX 291625
RWRMHX
WEATHER ROUNDUP FOR EASTERN NORTH CAROLINA
NATIONAL WEATHER SERVICE NEWPORT/MOREHEAD CITY NC
1200 PM EDT FRI APR 29 2016

NOTE: "FAIR" INDICATES FEW OR NO CLOUDS BELOW 12,000 FEET
WITH NO SIGNIFICANT WEATHER AND/OR OBSTRUCTIONS TO VISIBILITY

NCZ015>017-031-032-045>047-102-103-291700-
NORTH COAST

CITY           SKY/WX    TMP DP  RH WIND       PRES   REMARKS
EDENTON        CLOUDY    61  61  98 NE5       30.02F
ELIZABETH CITY CLOUDY    58  55  90 N7        30.03R
KITTY HAWK     CLOUDY    59  58  94 NW3       29.99F
MANTEO         NOT AVBL

$$

NCZ045>047-081-094-103-104-291700-
CENTRAL COAST

CITY           SKY/WX    TMP DP  RH WIND       PRES   REMARKS
FRISCO         CLOUDY    67  61  81 VRB6      29.98F
SWANQUARTER    NOT AVBL

$$

NCZ095-097-098-100-101-291700-
SOUTHERN COAST

CITY           SKY/WX    TMP DP  RH WIND       PRES   REMARKS
BEAUFORT       CLOUDY    67  61  81 NE10      30.00S
CEDAR ISLAND   NOT AVBL
JACKSONVILLE   CLOUDY    68  60  75 N9        30.00S
PINEY ISLAND   NOT AVBL
WILMINGTON     MOSUNNY   78  63  59 N13       29.98R


$$

NCZ011>013-027>030-043-044-078>080-089-090>093-098-291700-
COASTAL PLAIN

CITY           SKY/WX    TMP DP  RH WIND       PRES   REMARKS
AHOSKIE        CLOUDY    57  55  93 N3        30.03S FOG
CLINTON        PTSUNNY   71  63  75 NE3       30.00S
ELIZABETHTOWN  SUNNY     77  62  59 CALM      29.98S
GOLDSBORO      CLOUDY    63  63 100 NE8       30.01R
GREENVILLE     CLOUDY    61  59  94 E3        30.04S
HAVELOCK       CLOUDY    65  60  84 N9        30.02R
KENANSVILLE    CLOUDY    65  59  80 E6        30.03S
KINSTON        CLOUDY    63  59  88 N7        30.03S
NEW BERN       CLOUDY    63  60  90 NE10      30.03S
RICHLANDS      CLOUDY    66  61  82 NE10      30.01S
ROCKY MOUNT    CLOUDY    60  57  89 E5        30.02F
WASHINGTON     CLOUDY    61  58  91 E3        30.03S
WHITEVILLE     SUNNY     79  62  55 NE8       29.97S

$$

AMZ130-135-150-152-154-156-158-170-250-252-270-ANZ085-086-088-633-658-670-291700-
MARINE OBSERVATIONS

STATION/POSITION TIME  TEMP    WIND        PRES    WAVE   SWELL
                       AIR SEA DIR/SP/G            HT/PER HT/PER
                 (UTC) (F)     (DEG/KT/KT) (MB)    (FT/S) (FT/S)
CHESAPEAKE LIGHT 1600   53     360/ 11/ 11 1017.1
64 E VA BEACH    1550   54 54  350/  6/  8 1014.8    4/ 7   3/ 7
DUCK             1600   55 66  350/ 11/ 12 1015.7
2 E DUCK         1511      58                N/A     4/ 5
OREGON INLET     1600   59 62  350/ 11/ 14 1015.4
13E OREGON INLT  1500      58                N/A     4/ 5   3/ 5
HATTERAS CG      1600   63 69  360/ 13/ 15 1014.8
DIAMOND BUOY     1550   63 70  360/ 16/ 21 1014.7    3/ 5   2/10
CAPE LOOKOUT     1600   63      30/ 13/ 15 1015.5
BEAUFORT LAB     1600   64 67   10/ 10/ 14 1015.1
30 SE NEW RVR IN 1525      67                N/A     3/ 6
27 SE WRIGHTSVLE 1608   68 69   40/ 14/ 19 1014.8
5 SE WRIGHTSVLE  1608   69 67   60/ 14/ 17 1015.8
225 S CAPE HAT   1550   72 71  200/ 14/ 16 1015.7    3/10   2/10
41 SE CHARLESTON 1550   72 72  310/  6/  6 1014.3    2/ 4   2/ 9

$$




USA.gov is the U.S. government's official web portal to all federal, state and local government web resources and services.